Capitol Logistics 258


TBPB
Grantley Adams International Airport
Bridgetown, BB
TNCM
Princess Juliana International Airport
St. Maarten, SX

Activity Log

Date Flight Route Aircraft Duration
11/23/2019 CPX258 BGI UA632 ANU UB520 ELOPO ULUBA1 B763 1h 28m
08/30/2019 CPX258 BGI UA632 ANU B520 ELOPO ULUBA1 B763 1h 18m
06/16/2019 CPX258 BGI UA632 ANU UB520 ELOPO ULUBA1 B763 1h 18m
02/04/2019 CPX258 BGI UA632 ANU UB520 ELOPO ULUBA1 B763 1h 20m

Route Details

Aircraft Information
Primary: Boeing 767-300BDSF
Backup: Not Available
Route Data
Distance: 365nm
Sched. Duration: 1h 00m
Avg. Duration: 1h 21m (+22m)
Times Flown: 4
Recm'd Route: BGI UA632 ANU UB520 ELOPO ULUBA1
Planned Altitude: 36,000ft
Origin Wx: TBPB 051600Z 10021KT 9999 SCT016 BKN036 28/22 Q1017 NOSIG
Dest. Wx: TNCM 051500Z 09015G26KT 050V120 9999 BKN020 30/22 Q1020 NOSIG
Notes:

Financial History
Total Freight: 302,929lbs
Average Load: 75,732lbs/flt
Fuel Used: 53,970lbs
Avg. Fuel Used: 13,493lbs/flt
Fuel Expense: $36,313
Avg. Fuel Expense: $9,078
Avg. Fuel Cost: $0.67/lbs
Total Gross Income: $383,994
Pilot Pay: $756
Total Expenses: $41,679
Total Revenue: $304,727
Average Revenue: $95,998.59